Location: Barrio de Buenos Aires
(28.4500°N, 16.2667°W)
Time: 17:22:55
(UTC+00:00)

ADEOS Rocket - Pass Details

Date: 24 January 2020
Orbit: 859 x 1306 km, 98.7° (Epoch: 23 February)

Event Time Altitude Azimuth Distance (km) Brightness Sun altitude
Rises 19:35:14 0° 18° (NNE) 3,937 5.8 -12.8°
Reaches altitude 10° 19:37:46 10° 23° (NNE) 3,036 5.2 -13.4°
Maximum altitude 19:44:40 58° 101° (ESE) 1,401 3.5 -14.8°
Drops below altitude 10° 19:52:07 10° 179° (S) 3,271 5.9 -16.4°
Sets 19:54:55 0° 183° (S) 4,262 6.6 -17.0°
